Starlink 31562

operational
NORAD ID: 59340 Int'l Des: 2024-057 Owner: SPXS Country: US Constellation: starlink
LEOCIRCULAR

Starlink 31562について

説明を読み込み中...

リアルタイム位置

3D地球を読み込み中...

次回通過

高度履歴

Altitude vs Time

uPlot chart will show altitude changes over time

軌道要素

1 59340U 24057W 25352.92202645 .00001175 00000-0 52227-4 0 9992
2 59340 43.0038 298.1912 0001017 277.4695 82.6041 15.27573514 97313
Epoch: Dec 18, 2025 • Age: 25 hours

現在のステータス

高度 485.2 km
速度 7.62 km/s
衛星直下点 -13.80°S, 158.9°W
打ち上げ日 Mar 25, 2024
運用期間 1.7 years
タイプ internet

技術仕様

分類 Payload
質量 730.00 kg
乾燥質量 700.00 kg
総質量 730.00 kg
長さ 0.30 m
直径 4.10 m
スパン 29.00 m
形状 Box + pan
製造者 SPXS
バスタイプ Starlink V2M
フェーズステータス In Orbit
所有者/国 SPXS/US

大規模コンステレーション

Loading constellations...